LEMUR-2 JOEL

Last updated on Fri Jun 10 2016 09:38:15 GMT+0000 (Coordinated Universal Time)

1 40932U 15052C 16162.10445838 .00001521 00000-0 12096-3 0 9990 2 40932 6.0073 4.2032 0013849 21.7903 338.2962 14.77157448 37892

Satellite not in orbit

LEMUR-2 JOEL